TimeCDT,TemperatureF,Dew PointF,Humidity,Sea Level PressureIn,VisibilityMPH,Wind Direction,Wind SpeedMPH,Gust SpeedMPH,PrecipitationIn,Events,Conditions,WindDirDegrees,DateUTC
12:55 AM,35.6,24.8,65,30.25,10.0,West,10.4,-,N/A,,Overcast,280,2013-03-26 05:55:00
1:55 AM,33.8,24.8,70,30.26,10.0,WNW,10.4,-,N/A,,Overcast,290,2013-03-26 06:55:00
2:55 AM,32.0,24.8,75,30.25,10.0,WNW,8.1,-,N/A,,Mostly Cloudy,290,2013-03-26 07:55:00
3:15 AM,32.0,24.8,75,30.24,10.0,WNW,8.1,-,N/A,,Scattered Clouds,300,2013-03-26 08:15:00
3:35 AM,32.0,24.8,75,30.25,10.0,WNW,6.9,-,N/A,,Scattered Clouds,300,2013-03-26 08:35:00
3:55 AM,33.8,24.8,70,30.25,10.0,WNW,6.9,-,N/A,,Overcast,300,2013-03-26 08:55:00
4:15 AM,33.8,24.8,70,30.25,10.0,WNW,9.2,-,N/A,,Overcast,290,2013-03-26 09:15:00
4:35 AM,33.8,24.8,70,30.25,10.0,WNW,9.2,-,N/A,,Overcast,300,2013-03-26 09:35:00
4:55 AM,33.8,24.8,70,30.25,10.0,WNW,12.7,-,N/A,,Overcast,290,2013-03-26 09:55:00
5:15 AM,33.8,26.6,75,30.26,10.0,WNW,9.2,-,N/A,,Overcast,300,2013-03-26 10:15:00
5:35 AM,33.8,26.6,75,30.26,10.0,WNW,8.1,-,N/A,,Overcast,300,2013-03-26 10:35:00
5:55 AM,32.0,26.6,80,30.26,10.0,WNW,6.9,-,N/A,,Mostly Cloudy,290,2013-03-26 10:55:00
6:55 AM,30.2,24.8,80,30.29,10.0,West,5.8,-,N/A,,Mostly Cloudy,280,2013-03-26 11:55:00
7:55 AM,32.0,26.6,80,-9999,10.0,North,-9999.0,-,N/A,,Scattered Clouds,0,2013-03-26 12:55:00
8:55 AM,35.6,28.4,75,30.34,10.0,WNW,6.9,-,N/A,,Scattered Clouds,290,2013-03-26 13:55:00
9:55 AM,39.2,28.4,65,30.35,10.0,NW,10.4,-,N/A,,Scattered Clouds,320,2013-03-26 14:55:00
10:55 AM,41.0,28.4,61,30.36,10.0,NW,10.4,-,N/A,,Mostly Cloudy,320,2013-03-26 15:55:00
11:55 AM,41.0,26.6,57,30.37,10.0,NW,9.2,-,N/A,,Mostly Cloudy,310,2013-03-26 16:55:00
12:55 PM,42.8,26.6,53,30.37,10.0,WNW,8.1,-,N/A,,Overcast,290,2013-03-26 17:55:00
1:55 PM,42.8,26.6,53,30.36,10.0,North,10.4,-,N/A,,Overcast,360,2013-03-26 18:55:00
2:55 PM,44.6,24.8,46,30.35,10.0,Variable,3.5,-,N/A,,Mostly Cloudy,0,2013-03-26 19:55:00
3:55 PM,46.4,26.6,46,30.34,10.0,WNW,9.2,-,N/A,,Mostly Cloudy,300,2013-03-26 20:55:00
4:55 PM,46.4,26.6,46,30.33,10.0,West,10.4,-,N/A,,Mostly Cloudy,280,2013-03-26 21:55:00
5:55 PM,44.6,24.8,46,30.33,10.0,NW,5.8,-,N/A,,Mostly Cloudy,320,2013-03-26 22:55:00
6:55 PM,44.6,26.6,49,30.34,10.0,West,6.9,-,N/A,,Scattered Clouds,270,2013-03-26 23:55:00
7:55 PM,39.2,26.6,61,30.35,10.0,Calm,Calm,-,N/A,,Scattered Clouds,0,2013-03-27 00:55:00
8:55 PM,35.6,26.6,70,30.36,10.0,Calm,Calm,-,N/A,,Clear,0,2013-03-27 01:55:00
9:55 PM,33.8,26.6,75,30.36,10.0,Calm,Calm,-,N/A,,Clear,0,2013-03-27 02:55:00
10:55 PM,33.8,24.8,70,30.36,10.0,Calm,Calm,-,N/A,,Clear,0,2013-03-27 03:55:00
11:55 PM,32.0,24.8,75,30.36,10.0,Calm,Calm,-,N/A,,Clear,0,2013-03-27 04:55:00